Location: Allens Landing
(37.8284°N, 89.7284°W)
Time: 13:20:52
(UTC+00:00)

Vanguard 2 - Pass Details

Date: 21 December 2025
Orbit: 552 x 2898 km, 32.9° (Epoch: 13 January)

Event Time Altitude Azimuth Distance (km) Brightness Sun altitude
Exits shadow 11:10:43 18° 195° (SSW) 1,371 8.8 -22.9°
Drops below altitude 10° 11:13:07 10° 158° (SSE) 1,825 9.9 -22.5°
Sets 11:15:57 0° 138° (SE) 2,811 11.3 -21.9°
